This is the latest recevied weather packets stored in our database for station/object KR8N. If no packets are shown the sender has not sent any weather packets the latest 10 day(s).
| Time | Temp. | Humidity | Pressure | Rain* | Wind** | Luminosity | Snow |
|---|---|---|---|---|---|---|---|
| 1778063875 | 12.78° C | 94% | 1012.1 hPa | 0 mm | - | 1 W/m² | - |
| 1778063573 | 12.78° C | 94% | 1011.9 hPa | 0 mm | - | 1 W/m² | - |
| 1778063270 | 12.78° C | 94% | 1011.7 hPa | 0 mm | - | 0 W/m² | - |
| 1778062968 | 12.78° C | 94% | 1011.9 hPa | 1.27 mm | - | 0 W/m² | - |
| 1778062665 | 12.78° C | 94% | 1011.9 hPa | 1.27 mm | - | 0 W/m² | - |
| 1778062361 | 12.78° C | 94% | 1011.8 hPa | 0 mm | - | 0 W/m² | - |
| 1778062059 | 12.78° C | 94% | 1011.7 hPa | 0 mm | - | 0 W/m² | - |
| 1778061757 | 12.78° C | 94% | 1011.7 hPa | 3.05 mm | - | 0 W/m² | - |
| 1778061455 | 12.78° C | 94% | 1011.7 hPa | 7.87 mm | - | 0 W/m² | - |
| 1778061152 | 12.78° C | 94% | 1011.8 hPa | 7.87 mm | - | 0 W/m² | - |
| 1778060849 | 12.78° C | 94% | 1011.9 hPa | 3.05 mm | - | 0 W/m² | - |
| 1778060547 | 12.78° C | 93% | 1011.6 hPa | 3.05 mm | - | 0 W/m² | - |
| 1778060246 | 12.78° C | 93% | 1011.6 hPa | 3.05 mm | - | 0 W/m² | - |
| 1778059942 | 12.78° C | 93% | 1011.7 hPa | 3.05 mm | - | 0 W/m² | - |
| 1778059640 | 12.78° C | 93% | 1012 hPa | 4.83 mm | - | 0 W/m² | - |
| 1778059337 | 12.78° C | 92% | 1012.1 hPa | 3.05 mm | - | 0 W/m² | - |
| 1778059035 | 12.78° C | 91% | 1012 hPa | 1.78 mm | - | 0 W/m² | - |
| 1778058732 | 12.78° C | 90% | 1011.8 hPa | 1.27 mm | - | 0 W/m² | - |
| 1778058430 | 12.78° C | 91% | 1011.7 hPa | 1.27 mm | - | 0 W/m² | - |
| 1778058126 | 12.78° C | 91% | 1011.8 hPa | 0 mm | - | 0 W/m² | - |
| 1778057824 | 12.78° C | 91% | 1011.9 hPa | 1.78 mm | - | 0 W/m² | - |
| 1778057519 | 12.78° C | 91% | 1012 hPa | 3.05 mm | - | 0 W/m² | - |
| 1778057216 | 12.78° C | 91% | 1012 hPa | 3.05 mm | - | 0 W/m² | - |
| 1778056913 | 12.78° C | 89% | 1012.3 hPa | 3.05 mm | - | 0 W/m² | - |
| 1778056610 | 13.33° C | 88% | 1012.3 hPa | 6.6 mm | - | 0 W/m² | - |
* Rain latest hour (hover to see other rain measurements)
** Current wind speed in m/s (hover to see current wind gust speed)